www.pogodaiklimat.ru

Погода и климат >> Архив погоды >> Бангладеш >> Chittagong


ПОГОДА в Chittagong

  • Прогноз погоды в Chittagong
  • Монитор погоды в Chittagong
  • Климат города

АРХИВ ПОГОДЫ в Chittagong

Время (UTC), дата Ветер
(напр.,м/с)
 
Видим.   Явления Облачность Т
(С)
Тd
(С)
f
(%)
Тe
(С)
Тes
(С)
Комфортность P
(гПа)
Po
(гПа)
Тmin
(С)
Tmax
(С)
R
(мм)
R24
(мм)
S
(см)
03 14.05 Ю 5 5000 м 9/4 540 м
[Sc Ac As]
+29.6 +23.0 68 +40 +41 очень
душно
1011.3 1001.6 +23.0
06 14.05 ЮЗ 6 6000 м 8/4 540 м
[Cu med, cong Ac trans]
+32.4 +24.0 61 +44 +48 опасность
перегрева
1010.0 1009.4
12 14.05 Ю 6 6000 м 4/3 540 м
[Sc As op]
+29.8 +24.0 71 +41 +41 опасность
перегрева
1006.8 1006.2 +32.8
15 14.05 Ю 3 5000 м 3/3 540 м
[Sc]
+27.3 +22.0 73 +35 +35 очень
душно
1008.1 1007.5
18 14.05 ЮВ 1 5000 м 4/4 540 м
[Sc]
+24.0 +22.0 89 +31 +31 очень
душно
1007.1 1006.5
21 14.05 штиль 0 4000 м 3/3 540 м
[Sc]
+24.5 +22.0 86 +32 +32 очень
душно
1006.7 1006.1
00 15.05 штиль 0 4000 м 4/4 540 м
[Sc]
+25.0 +21.0 78 +31 +32 очень
душно
1007.4 1006.8
03 15.05 ЮВ 3 5000 м 8/4 540 м
[Sc As op]
+28.8 +25.0 80 +42 +45 опасность
перегрева
1009.0 1008.4 +24.5
06 15.05 Ю 5 5000 м 8/4 540 м
[Sc As op]
+31.0 +21.0 55 +38 +42 очень
душно
1008.8 1008.2
09 15.05 ЮЗ 6 6000 м 4/3 540 м
[Sc Ac trans]
+32.0 +23.0 59 +42 +45 опасность
перегрева
1006.2 1005.5
12 15.05 ЮЗ 4 6000 м 4/3 540 м
[Sc Ac trans]
+30.0 +25.0 75 +43 +43 опасность
перегрева
1005.7 1005.1 +32.5
15 15.05 штиль 0 5000 м 4/3 540 м
[Sc Ac trans]
+29.6 +24.0 72 +41 +41 опасность
перегрева
1006.4 1005.7
18 15.05 ЮВ 2 5000 м 4/4 540 м
[Sc As op]
+27.4 +25.0 87 +39 +39 очень
душно
1007.0 1006.3
21 15.05 Ю 2 5000 м 4/4 540 м
[Sc As op]
+26.4 +24.0 87 +37 +37 очень
душно
1006.0 1005.3
00 16.05 ЮВ 2 5000 м 4/4 540 м
[Sc As op]
+25.6 +25.0 96 +36 +37 очень
душно
1005.2 1004.5
03 16.05 штиль 0 5000 м 10/6 270 м
[Cb calv As op]
+30.7 +26.0 76 +46 +47 опасность
перегрева
1007.8 1007.2 +25.3
06 16.05 СЗ 2 3100 м слабый дождь 10/6 240 м
[Cb calv As op]
+24.5 +24.0 97 +34 +35 очень
душно
1010.6 1009.9 3
09 16.05 штиль 0 5000 м 8/4 540 м
[Sc As op]
+29.5 +21.0 60 +37 +41 очень
душно
1006.2 1005.5 10
12 16.05 З 5 5000 м 8/4 540 м
[Sc As op]
+27.6 +20.0 63 +34 +34 очень
душно
1006.0 1005.3 +30.5
15 16.05 ЮВ 3 5000 м 6/4 540 м
[Sc Ac trans]
+25.8 +22.0 80 +33 +33 очень
душно
1005.6 1004.9
18 16.05 штиль 0 5000 м 5/3 540 м
[Sc Ac trans]
+25.7 +23.0 85 +34 +34 очень
душно
1005.6 1005.0
21 16.05 штиль 0 5000 м 8/4 540 м
[Sc Ac trans]
+25.4 +22.0 81 +33 +33 очень
душно
1005.0 1004.3
00 17.05 ЮВ 3 4000 м слабый дождь 9/4 480 м
[Cb calv Ac As]
+24.8 +23.0 90 +33 +33 очень
душно
1005.4 1004.8 0.0
03 17.05 ЮВ 4 5000 м {дождь} 5/1 540 м
[Sc Ac trans]
+29.4 +22.0 64 +38 +43 очень
душно
1006.4 1005.8 +22.6 0.1
06 17.05 ЮЗ 5 1400 м дождь 10/8 210 м
[Cb calv As op]
+24.4 +23.0 92 +32 +33 очень
душно
1007.1 1006.5 16
09 17.05 ЮВ 4 4000 м 9/4 540 м
[Sc As op]
+26.0 +24.0 89 +36 +37 очень
душно
1005.2 1004.5 82
12 17.05 штиль 0 5000 м мгла 6/4 540 м
[Sc As op]
+28.8 +25.0 80 +42 +42 опасность
перегрева
1004.0 1003.3 +33.3
15 17.05 штиль 0 4000 м мгла 3/3 540 м
[Sc]
+27.3 +24.0 82 +38 +38 очень
душно
1005.6 1005.0
18 17.05 ЮВ 2 4000 м мгла 3/3 540 м
[Sc]
+26.9 +25.0 89 +39 +39 очень
душно
1005.3 1004.7
21 17.05 штиль 0 3500 м слабый дождь 10/6 270 м
[Cb calv As op]
+25.7 +25.0 96 +37 +37 очень
душно
1005.0 1004.4
00 18.05 ЮВ 4 4000 м {дождь} 9/5 480 м
[Cb calv As op]
+24.5 +23.0 91 +32 +33 очень
душно
1005.6 1005.0 15
03 18.05 Ю 3 5000 м дым {дождь} 8/8 300 м
[Sc diur, vesp Ac cuf]
+24.5 +24.0 97 1006.3 1005.7 7
06 18.05 Ю 6 5000 м {дождь} 8/5 900 м
[Cb calv As op]
+30.8 +24.0 67 +42 +45 опасность
перегрева
1006.0 1005.4 7
09 18.05 ЮЗ 4 5000 м 8/4 360 м
[Cb calv As op]
+30.2 +25.0 74 +44 +46 опасность
перегрева
1003.9 1003.3
12 18.05 штиль 0 3100 м гроза, ливневой дождь 10/5 540 м
[Cb calv As op]
+24.0 +22.0 89 +31 +31 очень
душно
1004.6 1004.0 +32.5 8
15 18.05 Ю 3 4000 м {дождь} 8/4 540 м
[Sc As op]
+24.8 +23.0 90 +33 +33 очень
душно
1004.6 1004.0 8

 

Местоположение метеостанции Chittagong (Бангладеш): широта 22.27 долгота 91.82 высота над уровнем моря 6 м.

В архиве по умолчанию представлена погода в Chittagong за последнюю неделю. Архивные данные за месяц целиком и за предыдущие месяцы, начиная с января 2011 года, Вы можете получить, выбрав интересующий диапазон дат из раскрывающегося списка и нажав кнопку "Ввод!".


*Определитесь, кто Вы:
робот инопланетянин человек

Внимание! Время в таблицах - всемирное. Для получения местного времени необходимо прибавить поправку, которая в Chittagong равна 6.5 ч.

Смотрите также архив погоды в соседних городах и на ближайших метеорологических станциях:

Погода в Sitakundu (Бангладеш) (37 км)
Погода в Sandwip (Бангладеш) (46 км)
Погода в Rangamati (Бангладеш) (49 км)
Погода в Kutubdia (Бангладеш) (50 км)
Погода в Hatia (Бангладеш) (76 км)
Погода в Feni (Бангладеш) (94 км)
Погода в Coxs Bazar (Бангладеш) (94 км)
Погода в Maijdicourt (Бангладеш) (100 км)
Погода в Bhola (Бангладеш) (129 км)
Погода в Comilla (Бангладеш) (145 км)

Пояснения к столбцам:

Ветер - указаны скорость ветра в м/с - средняя за 10 мин, порывы в срок и между сроками (в фигурных скобках) и направление, откуда дует ветер: С - северный, СВ - северо-восточный, В - восточный, ЮВ - юго-восточный, Ю - южный, ЮЗ - юго-западный, З - западный, СЗ - северо-западный.
Видимость - горизонтальная дальность видимости в метрах или километрах. При видимости от 1 до 10 км при отсутствии осадков обычно наблюдается дымка, при ухудшении видимости до 1 км и менее - туман. В сухую погоду видимость может ухудшаться дымом, пылью или мглою.
Явления - указаны атмосферные явления, наблюдавшиеся в срок или в последний час перед сроком; фигурными скобками обозначены явления, наблюдавшиеся между сроками (за 1-3 часа до срока); квадратными скобками обозначены град или гололедные отложения с указанием их диаметра в мм.
Облачность - указаны через наклонную черту общая и нижняя облачность в баллах и высота нижней границы облаков в метрах; квадратными скобками обозначены формы облаков: Ci - перистые, Cs - перисто-слоистые, Cc - перисто-кучевые, Ac - высококучевые, As - высокослоистые, Sc - слоисто-кучевые, Ns - слоисто-дождевые, Cu - кучевые, Cb - кучево-дождевые. Подробнее классификацию облаков см. в Атласе облаков (PDF).
T - Температура воздуха - температура, измеренная на высоте 2 м над землей.
Td - Температура точки росы - температура, при понижении до которой содержащийся в воздухе водяной пар достигнет насыщения.
f - Относительная влажность воздуха - влажноcть воздуха, измеренная на высоте 2 м над землей.
Te - Эффективная температура - температура, которую ощущает одетый по сезону человек в тени. Характеристика душности погоды. При расчете учитывается влияние влажности воздуха и скорости ветра на теплоощущения человека.
Tes - Эффективная температура на солнце - температура, которую ощущает человек, с поправкой на солнечный нагрев. Характеристика знойности погоды. Зависит от высоты солнца над горизонтом, облачности и скорости ветра. Ночью, в пасмурную погоду, а также при ветре 12 м/с и более поправка равна нулю.
P - Атмосферное давление - приведенное к уровню моря атмосферное давление.
Po - Атмосферное давление - измеренное на уровне метеостанции атмосферное давление.
Tmin - Минимальная температура - минимум температуры воздуха на высоте 2 м над землей.
Tmax - Максимальная температура - максимум температуры воздуха на высоте 2 м над землей.
R - Количество осадков - Количество выпавших осадков за период времени, мм. При наведении курсора мыши на число - период времени, за который выпало указанное количество осадков.
R24 - Количество осадков - Количество выпавших осадков за 24 часа, мм.
S - Снежный покров - Высота снежного покрова, см. При наведении курсора мыши на число - состояние снежного покрова и степень покрытия местности в баллах.